Index of /20260426/WXO-DD/model_rdps/10km/18/005
Name Last modified Size Description
Parent Directory -
20260426T18Z_MSC_RDPS_AbsoluteVorticity_IsbL-0250_RLatLon0.09_PT005H.grib2 2026-04-26 21:21 619K
20260426T18Z_MSC_RDPS_AbsoluteVorticity_IsbL-0500_RLatLon0.09_PT005H.grib2 2026-04-26 21:21 559K
20260426T18Z_MSC_RDPS_AbsoluteVorticity_IsbL-0700_RLatLon0.09_PT005H.grib2 2026-04-26 21:21 624K
20260426T18Z_MSC_RDPS_AbsoluteVorticity_IsbL-0850_RLatLon0.09_PT005H.grib2 2026-04-26 21:21 787K
20260426T18Z_MSC_RDPS_AirTemp_AGL-120m_RLatLon0.09_PT005H.grib2 2026-04-26 21:21 392K
20260426T18Z_MSC_RDPS_AirTemp_AGL-2m_RLatLon0.09_PT005H.grib2 2026-04-26 21:21 628K
20260426T18Z_MSC_RDPS_AirTemp_AGL-40m_RLatLon0.09_PT005H.grib2 2026-04-26 21:21 402K
20260426T18Z_MSC_RDPS_AirTemp_AGL-80m_RLatLon0.09_PT005H.grib2 2026-04-26 21:21 396K
20260426T18Z_MSC_RDPS_AirTemp_IsbL-0001_RLatLon0.09_PT005H.grib2 2026-04-26 21:21 262K
20260426T18Z_MSC_RDPS_AirTemp_IsbL-0005_RLatLon0.09_PT005H.grib2 2026-04-26 21:21 287K
20260426T18Z_MSC_RDPS_AirTemp_IsbL-0010_RLatLon0.09_PT005H.grib2 2026-04-26 21:21 296K
20260426T18Z_MSC_RDPS_AirTemp_IsbL-0020_RLatLon0.09_PT005H.grib2 2026-04-26 21:21 311K
20260426T18Z_MSC_RDPS_AirTemp_IsbL-0030_RLatLon0.09_PT005H.grib2 2026-04-26 21:21 331K
20260426T18Z_MSC_RDPS_AirTemp_IsbL-0050_RLatLon0.09_PT005H.grib2 2026-04-26 21:21 312K
20260426T18Z_MSC_RDPS_AirTemp_IsbL-0100_RLatLon0.09_PT005H.grib2 2026-04-26 21:21 414K
20260426T18Z_MSC_RDPS_AirTemp_IsbL-0150_RLatLon0.09_PT005H.grib2 2026-04-26 21:21 415K
20260426T18Z_MSC_RDPS_AirTemp_IsbL-0175_RLatLon0.09_PT005H.grib2 2026-04-26 21:21 412K
20260426T18Z_MSC_RDPS_AirTemp_IsbL-0200_RLatLon0.09_PT005H.grib2 2026-04-26 21:21 422K
20260426T18Z_MSC_RDPS_AirTemp_IsbL-0225_RLatLon0.09_PT005H.grib2 2026-04-26 21:21 424K
20260426T18Z_MSC_RDPS_AirTemp_IsbL-0250_RLatLon0.09_PT005H.grib2 2026-04-26 21:21 429K
20260426T18Z_MSC_RDPS_AirTemp_IsbL-0275_RLatLon0.09_PT005H.grib2 2026-04-26 21:21 409K
20260426T18Z_MSC_RDPS_AirTemp_IsbL-0300_RLatLon0.09_PT005H.grib2 2026-04-26 21:21 413K
20260426T18Z_MSC_RDPS_AirTemp_IsbL-0350_RLatLon0.09_PT005H.grib2 2026-04-26 21:21 426K
20260426T18Z_MSC_RDPS_AirTemp_IsbL-0400_RLatLon0.09_PT005H.grib2 2026-04-26 21:21 425K
20260426T18Z_MSC_RDPS_AirTemp_IsbL-0450_RLatLon0.09_PT005H.grib2 2026-04-26 21:21 433K
20260426T18Z_MSC_RDPS_AirTemp_IsbL-0500_RLatLon0.09_PT005H.grib2 2026-04-26 21:21 412K
20260426T18Z_MSC_RDPS_AirTemp_IsbL-0550_RLatLon0.09_PT005H.grib2 2026-04-26 21:21 430K
20260426T18Z_MSC_RDPS_AirTemp_IsbL-0600_RLatLon0.09_PT005H.grib2 2026-04-26 21:21 448K
20260426T18Z_MSC_RDPS_AirTemp_IsbL-0650_RLatLon0.09_PT005H.grib2 2026-04-26 21:21 460K
20260426T18Z_MSC_RDPS_AirTemp_IsbL-0700_RLatLon0.09_PT005H.grib2 2026-04-26 21:21 380K
20260426T18Z_MSC_RDPS_AirTemp_IsbL-0750_RLatLon0.09_PT005H.grib2 2026-04-26 21:21 415K
20260426T18Z_MSC_RDPS_AirTemp_IsbL-0800_RLatLon0.09_PT005H.grib2 2026-04-26 21:21 474K
20260426T18Z_MSC_RDPS_AirTemp_IsbL-0850_RLatLon0.09_PT005H.grib2 2026-04-26 21:21 513K
20260426T18Z_MSC_RDPS_AirTemp_IsbL-0875_RLatLon0.09_PT005H.grib2 2026-04-26 21:21 525K
20260426T18Z_MSC_RDPS_AirTemp_IsbL-0900_RLatLon0.09_PT005H.grib2 2026-04-26 21:21 528K
20260426T18Z_MSC_RDPS_AirTemp_IsbL-0925_RLatLon0.09_PT005H.grib2 2026-04-26 21:21 527K
20260426T18Z_MSC_RDPS_AirTemp_IsbL-0950_RLatLon0.09_PT005H.grib2 2026-04-26 21:21 528K
20260426T18Z_MSC_RDPS_AirTemp_IsbL-0970_RLatLon0.09_PT005H.grib2 2026-04-26 21:21 526K
20260426T18Z_MSC_RDPS_AirTemp_IsbL-0985_RLatLon0.09_PT005H.grib2 2026-04-26 21:21 521K
20260426T18Z_MSC_RDPS_AirTemp_IsbL-1000_RLatLon0.09_PT005H.grib2 2026-04-26 21:21 509K
20260426T18Z_MSC_RDPS_AirTemp_IsbL-1015_RLatLon0.09_PT005H.grib2 2026-04-26 21:21 504K
20260426T18Z_MSC_RDPS_Albedo_Sfc_RLatLon0.09_PT005H.grib2 2026-04-26 21:21 158K
20260426T18Z_MSC_RDPS_CAPE_Sfc_RLatLon0.09_PT005H.grib2 2026-04-26 21:21 1.7M
20260426T18Z_MSC_RDPS_CIN_Sfc_RLatLon0.09_PT005H.grib2 2026-04-26 21:21 1.3M
20260426T18Z_MSC_RDPS_CloudWater_EAtm_RLatLon0.09_PT005H.grib2 2026-04-26 21:21 219K
20260426T18Z_MSC_RDPS_ConvectivePrecip-Accum_Sfc_RLatLon0.09_PT005H.grib2 2026-04-26 21:21 527K
20260426T18Z_MSC_RDPS_DewPointDepression_AGL-2m_RLatLon0.09_PT005H.grib2 2026-04-26 21:21 415K
20260426T18Z_MSC_RDPS_DewPointDepression_IsbL-0001_RLatLon0.09_PT005H.grib2 2026-04-26 21:21 193
20260426T18Z_MSC_RDPS_DewPointDepression_IsbL-0005_RLatLon0.09_PT005H.grib2 2026-04-26 21:21 193
20260426T18Z_MSC_RDPS_DewPointDepression_IsbL-0010_RLatLon0.09_PT005H.grib2 2026-04-26 21:21 193
20260426T18Z_MSC_RDPS_DewPointDepression_IsbL-0020_RLatLon0.09_PT005H.grib2 2026-04-26 21:21 193
20260426T18Z_MSC_RDPS_DewPointDepression_IsbL-0030_RLatLon0.09_PT005H.grib2 2026-04-26 21:21 193
20260426T18Z_MSC_RDPS_DewPointDepression_IsbL-0050_RLatLon0.09_PT005H.grib2 2026-04-26 21:21 89K
20260426T18Z_MSC_RDPS_DewPointDepression_IsbL-0100_RLatLon0.09_PT005H.grib2 2026-04-26 21:21 124K
20260426T18Z_MSC_RDPS_DewPointDepression_IsbL-0150_RLatLon0.09_PT005H.grib2 2026-04-26 21:21 155K
20260426T18Z_MSC_RDPS_DewPointDepression_IsbL-0175_RLatLon0.09_PT005H.grib2 2026-04-26 21:21 196K
20260426T18Z_MSC_RDPS_DewPointDepression_IsbL-0200_RLatLon0.09_PT005H.grib2 2026-04-26 21:21 236K
20260426T18Z_MSC_RDPS_DewPointDepression_IsbL-0225_RLatLon0.09_PT005H.grib2 2026-04-26 21:21 275K
20260426T18Z_MSC_RDPS_DewPointDepression_IsbL-0250_RLatLon0.09_PT005H.grib2 2026-04-26 21:21 316K
20260426T18Z_MSC_RDPS_DewPointDepression_IsbL-0275_RLatLon0.09_PT005H.grib2 2026-04-26 21:21 324K
20260426T18Z_MSC_RDPS_DewPointDepression_IsbL-0300_RLatLon0.09_PT005H.grib2 2026-04-26 21:21 340K
20260426T18Z_MSC_RDPS_DewPointDepression_IsbL-0350_RLatLon0.09_PT005H.grib2 2026-04-26 21:21 340K
20260426T18Z_MSC_RDPS_DewPointDepression_IsbL-0400_RLatLon0.09_PT005H.grib2 2026-04-26 21:21 349K
20260426T18Z_MSC_RDPS_DewPointDepression_IsbL-0450_RLatLon0.09_PT005H.grib2 2026-04-26 21:21 358K
20260426T18Z_MSC_RDPS_DewPointDepression_IsbL-0500_RLatLon0.09_PT005H.grib2 2026-04-26 21:21 365K
20260426T18Z_MSC_RDPS_DewPointDepression_IsbL-0550_RLatLon0.09_PT005H.grib2 2026-04-26 21:21 374K
20260426T18Z_MSC_RDPS_DewPointDepression_IsbL-0600_RLatLon0.09_PT005H.grib2 2026-04-26 21:21 383K
20260426T18Z_MSC_RDPS_DewPointDepression_IsbL-0650_RLatLon0.09_PT005H.grib2 2026-04-26 21:21 384K
20260426T18Z_MSC_RDPS_DewPointDepression_IsbL-0700_RLatLon0.09_PT005H.grib2 2026-04-26 21:21 397K
20260426T18Z_MSC_RDPS_DewPointDepression_IsbL-0750_RLatLon0.09_PT005H.grib2 2026-04-26 21:21 425K
20260426T18Z_MSC_RDPS_DewPointDepression_IsbL-0800_RLatLon0.09_PT005H.grib2 2026-04-26 21:21 458K
20260426T18Z_MSC_RDPS_DewPointDepression_IsbL-0850_RLatLon0.09_PT005H.grib2 2026-04-26 21:21 478K
20260426T18Z_MSC_RDPS_DewPointDepression_IsbL-0875_RLatLon0.09_PT005H.grib2 2026-04-26 21:21 476K
20260426T18Z_MSC_RDPS_DewPointDepression_IsbL-0900_RLatLon0.09_PT005H.grib2 2026-04-26 21:21 467K
20260426T18Z_MSC_RDPS_DewPointDepression_IsbL-0925_RLatLon0.09_PT005H.grib2 2026-04-26 21:21 457K
20260426T18Z_MSC_RDPS_DewPointDepression_IsbL-0950_RLatLon0.09_PT005H.grib2 2026-04-26 21:21 445K
20260426T18Z_MSC_RDPS_DewPointDepression_IsbL-0970_RLatLon0.09_PT005H.grib2 2026-04-26 21:21 435K
20260426T18Z_MSC_RDPS_DewPointDepression_IsbL-0985_RLatLon0.09_PT005H.grib2 2026-04-26 21:21 431K
20260426T18Z_MSC_RDPS_DewPointDepression_IsbL-1000_RLatLon0.09_PT005H.grib2 2026-04-26 21:21 428K
20260426T18Z_MSC_RDPS_DewPointDepression_IsbL-1015_RLatLon0.09_PT005H.grib2 2026-04-26 21:21 420K
20260426T18Z_MSC_RDPS_DewPoint_AGL-2m_RLatLon0.09_PT005H.grib2 2026-04-26 21:21 311K
20260426T18Z_MSC_RDPS_DownwardLongwaveRadiationFlux-Accum_Sfc_RLatLon0.09_PT005H.grib2 2026-04-26 21:21 484K
20260426T18Z_MSC_RDPS_DownwardShortwaveRadiationFlux-Accum_NTAtm_RLatLon0.09_PT005H.grib2 2026-04-26 21:21 100K
20260426T18Z_MSC_RDPS_DownwardShortwaveRadiationFlux-Accum_Sfc_RLatLon0.09_PT005H.grib2 2026-04-26 21:21 588K
20260426T18Z_MSC_RDPS_FreezingRain-Accum1h_Sfc_RLatLon0.09_PT005H.grib2 2026-04-26 21:21 7.0K
20260426T18Z_MSC_RDPS_FreezingRain-Accum_Sfc_RLatLon0.09_PT005H.grib2 2026-04-26 21:21 18K
20260426T18Z_MSC_RDPS_GeopotentialHeight_IsbL-0001_RLatLon0.09_PT005H.grib2 2026-04-26 21:21 244K
20260426T18Z_MSC_RDPS_GeopotentialHeight_IsbL-0005_RLatLon0.09_PT005H.grib2 2026-04-26 21:21 340K
20260426T18Z_MSC_RDPS_GeopotentialHeight_IsbL-0010_RLatLon0.09_PT005H.grib2 2026-04-26 21:21 308K
20260426T18Z_MSC_RDPS_GeopotentialHeight_IsbL-0020_RLatLon0.09_PT005H.grib2 2026-04-26 21:21 306K
20260426T18Z_MSC_RDPS_GeopotentialHeight_IsbL-0030_RLatLon0.09_PT005H.grib2 2026-04-26 21:21 404K
20260426T18Z_MSC_RDPS_GeopotentialHeight_IsbL-0050_RLatLon0.09_PT005H.grib2 2026-04-26 21:21 309K
20260426T18Z_MSC_RDPS_GeopotentialHeight_IsbL-0100_RLatLon0.09_PT005H.grib2 2026-04-26 21:21 289K
20260426T18Z_MSC_RDPS_GeopotentialHeight_IsbL-0150_RLatLon0.09_PT005H.grib2 2026-04-26 21:21 231K
20260426T18Z_MSC_RDPS_GeopotentialHeight_IsbL-0175_RLatLon0.09_PT005H.grib2 2026-04-26 21:21 233K
20260426T18Z_MSC_RDPS_GeopotentialHeight_IsbL-0200_RLatLon0.09_PT005H.grib2 2026-04-26 21:21 267K
20260426T18Z_MSC_RDPS_GeopotentialHeight_IsbL-0225_RLatLon0.09_PT005H.grib2 2026-04-26 21:21 269K
20260426T18Z_MSC_RDPS_GeopotentialHeight_IsbL-0250_RLatLon0.09_PT005H.grib2 2026-04-26 21:21 271K
20260426T18Z_MSC_RDPS_GeopotentialHeight_IsbL-0275_RLatLon0.09_PT005H.grib2 2026-04-26 21:21 239K
20260426T18Z_MSC_RDPS_GeopotentialHeight_IsbL-0300_RLatLon0.09_PT005H.grib2 2026-04-26 21:21 238K
20260426T18Z_MSC_RDPS_GeopotentialHeight_IsbL-0350_RLatLon0.09_PT005H.grib2 2026-04-26 21:21 233K
20260426T18Z_MSC_RDPS_GeopotentialHeight_IsbL-0400_RLatLon0.09_PT005H.grib2 2026-04-26 21:21 230K
20260426T18Z_MSC_RDPS_GeopotentialHeight_IsbL-0450_RLatLon0.09_PT005H.grib2 2026-04-26 21:21 299K
20260426T18Z_MSC_RDPS_GeopotentialHeight_IsbL-0500_RLatLon0.09_PT005H.grib2 2026-04-26 21:21 294K
20260426T18Z_MSC_RDPS_GeopotentialHeight_IsbL-0550_RLatLon0.09_PT005H.grib2 2026-04-26 21:21 291K
20260426T18Z_MSC_RDPS_GeopotentialHeight_IsbL-0600_RLatLon0.09_PT005H.grib2 2026-04-26 21:21 288K
20260426T18Z_MSC_RDPS_GeopotentialHeight_IsbL-0650_RLatLon0.09_PT005H.grib2 2026-04-26 21:21 285K
20260426T18Z_MSC_RDPS_GeopotentialHeight_IsbL-0700_RLatLon0.09_PT005H.grib2 2026-04-26 21:21 283K
20260426T18Z_MSC_RDPS_GeopotentialHeight_IsbL-0750_RLatLon0.09_PT005H.grib2 2026-04-26 21:21 284K
20260426T18Z_MSC_RDPS_GeopotentialHeight_IsbL-0800_RLatLon0.09_PT005H.grib2 2026-04-26 21:21 262K
20260426T18Z_MSC_RDPS_GeopotentialHeight_IsbL-0850_RLatLon0.09_PT005H.grib2 2026-04-26 21:21 268K
20260426T18Z_MSC_RDPS_GeopotentialHeight_IsbL-0875_RLatLon0.09_PT005H.grib2 2026-04-26 21:21 271K
20260426T18Z_MSC_RDPS_GeopotentialHeight_IsbL-0900_RLatLon0.09_PT005H.grib2 2026-04-26 21:21 274K
20260426T18Z_MSC_RDPS_GeopotentialHeight_IsbL-0925_RLatLon0.09_PT005H.grib2 2026-04-26 21:21 277K
20260426T18Z_MSC_RDPS_GeopotentialHeight_IsbL-0950_RLatLon0.09_PT005H.grib2 2026-04-26 21:21 281K
20260426T18Z_MSC_RDPS_GeopotentialHeight_IsbL-0970_RLatLon0.09_PT005H.grib2 2026-04-26 21:21 286K
20260426T18Z_MSC_RDPS_GeopotentialHeight_IsbL-0985_RLatLon0.09_PT005H.grib2 2026-04-26 21:21 293K
20260426T18Z_MSC_RDPS_GeopotentialHeight_IsbL-1000_RLatLon0.09_PT005H.grib2 2026-04-26 21:21 303K
20260426T18Z_MSC_RDPS_GeopotentialHeight_IsbL-1015_RLatLon0.09_PT005H.grib2 2026-04-26 21:21 314K
20260426T18Z_MSC_RDPS_Humidex_Sfc_RLatLon0.09_PT005H.grib2 2026-04-26 21:21 2.2M
20260426T18Z_MSC_RDPS_IcePellets-Accum1h_Sfc_RLatLon0.09_PT005H.grib2 2026-04-26 21:21 6.0K
20260426T18Z_MSC_RDPS_IcePellets-Accum_Sfc_RLatLon0.09_PT005H.grib2 2026-04-26 21:21 6.8K
20260426T18Z_MSC_RDPS_KIndex_Sfc_RLatLon0.09_PT005H.grib2 2026-04-26 21:21 2.3M
20260426T18Z_MSC_RDPS_LatentHeatNetFlux_Sfc_RLatLon0.09_PT005H.grib2 2026-04-26 21:21 280K
20260426T18Z_MSC_RDPS_LiftedIndex-MU-VT_IsbL-0500_RLatLon0.09_PT005H.grib2 2026-04-26 21:21 2.4M
20260426T18Z_MSC_RDPS_NetLongwaveRadiationFlux-Accum_Sfc_RLatLon0.09_PT005H.grib2 2026-04-26 21:21 508K
20260426T18Z_MSC_RDPS_NetShortwaveRadiationFlux-Accum_Sfc_RLatLon0.09_PT005H.grib2 2026-04-26 21:21 580K
20260426T18Z_MSC_RDPS_PlanetaryBoundaryLayerHeight_Sfc_RLatLon0.09_PT005H.grib2 2026-04-26 21:21 1.0M
20260426T18Z_MSC_RDPS_Precip-Accum1h_Sfc_RLatLon0.09_PT005H.grib2 2026-04-26 21:21 1.2M
20260426T18Z_MSC_RDPS_Precip-Accum_Sfc_RLatLon0.09_PT005H.grib2 2026-04-26 21:21 1.5M
20260426T18Z_MSC_RDPS_PrecipRate_Sfc_RLatLon0.09_PT005H.grib2 2026-04-26 21:21 171K
20260426T18Z_MSC_RDPS_PrecipType-Instant_Sfc_RLatLon0.09_PT005H.grib2 2026-04-26 21:21 591K
20260426T18Z_MSC_RDPS_Pressure-Trend3h_Sfc_RLatLon0.09_PT005H.grib2 2026-04-26 21:21 1.2M
20260426T18Z_MSC_RDPS_Pressure_MSL_RLatLon0.09_PT005H.grib2 2026-04-26 21:21 329K
20260426T18Z_MSC_RDPS_Pressure_PVU-1.5_RLatLon0.09_PT005H.grib2 2026-04-26 21:21 2.3M
20260426T18Z_MSC_RDPS_Pressure_PVU-1_RLatLon0.09_PT005H.grib2 2026-04-26 21:21 2.4M
20260426T18Z_MSC_RDPS_Pressure_PVU-2_RLatLon0.09_PT005H.grib2 2026-04-26 21:21 2.4M
20260426T18Z_MSC_RDPS_Pressure_Sfc_RLatLon0.09_PT005H.grib2 2026-04-26 21:21 498K
20260426T18Z_MSC_RDPS_RadiativeTemp_Sfc_RLatLon0.09_PT005H.grib2 2026-04-26 21:21 321K
20260426T18Z_MSC_RDPS_Rain-Accum1h_Sfc_RLatLon0.09_PT005H.grib2 2026-04-26 21:21 539K
20260426T18Z_MSC_RDPS_Rain-Accum_Sfc_RLatLon0.09_PT005H.grib2 2026-04-26 21:21 1.0M
20260426T18Z_MSC_RDPS_RelativeHumidity_AGL-2m_RLatLon0.09_PT005H.grib2 2026-04-26 21:21 1.0M
20260426T18Z_MSC_RDPS_RelativeHumidity_IsbL-0010_RLatLon0.09_PT005H.grib2 2026-04-26 21:21 628K
20260426T18Z_MSC_RDPS_RelativeHumidity_IsbL-0020_RLatLon0.09_PT005H.grib2 2026-04-26 21:21 653K
20260426T18Z_MSC_RDPS_RelativeHumidity_IsbL-0030_RLatLon0.09_PT005H.grib2 2026-04-26 21:21 540K
20260426T18Z_MSC_RDPS_RelativeHumidity_IsbL-0050_RLatLon0.09_PT005H.grib2 2026-04-26 21:21 325K
20260426T18Z_MSC_RDPS_RelativeHumidity_IsbL-0100_RLatLon0.09_PT005H.grib2 2026-04-26 21:21 269K
20260426T18Z_MSC_RDPS_RelativeHumidity_IsbL-0150_RLatLon0.09_PT005H.grib2 2026-04-26 21:21 409K
20260426T18Z_MSC_RDPS_RelativeHumidity_IsbL-0175_RLatLon0.09_PT005H.grib2 2026-04-26 21:21 490K
20260426T18Z_MSC_RDPS_RelativeHumidity_IsbL-0200_RLatLon0.09_PT005H.grib2 2026-04-26 21:21 571K
20260426T18Z_MSC_RDPS_RelativeHumidity_IsbL-0225_RLatLon0.09_PT005H.grib2 2026-04-26 21:21 639K
20260426T18Z_MSC_RDPS_RelativeHumidity_IsbL-0250_RLatLon0.09_PT005H.grib2 2026-04-26 21:21 712K
20260426T18Z_MSC_RDPS_RelativeHumidity_IsbL-0275_RLatLon0.09_PT005H.grib2 2026-04-26 21:21 740K
20260426T18Z_MSC_RDPS_RelativeHumidity_IsbL-0300_RLatLon0.09_PT005H.grib2 2026-04-26 21:21 780K
20260426T18Z_MSC_RDPS_RelativeHumidity_IsbL-0350_RLatLon0.09_PT005H.grib2 2026-04-26 21:21 792K
20260426T18Z_MSC_RDPS_RelativeHumidity_IsbL-0400_RLatLon0.09_PT005H.grib2 2026-04-26 21:21 802K
20260426T18Z_MSC_RDPS_RelativeHumidity_IsbL-0450_RLatLon0.09_PT005H.grib2 2026-04-26 21:21 810K
20260426T18Z_MSC_RDPS_RelativeHumidity_IsbL-0500_RLatLon0.09_PT005H.grib2 2026-04-26 21:21 827K
20260426T18Z_MSC_RDPS_RelativeHumidity_IsbL-0550_RLatLon0.09_PT005H.grib2 2026-04-26 21:21 843K
20260426T18Z_MSC_RDPS_RelativeHumidity_IsbL-0600_RLatLon0.09_PT005H.grib2 2026-04-26 21:21 861K
20260426T18Z_MSC_RDPS_RelativeHumidity_IsbL-0650_RLatLon0.09_PT005H.grib2 2026-04-26 21:21 875K
20260426T18Z_MSC_RDPS_RelativeHumidity_IsbL-0700_RLatLon0.09_PT005H.grib2 2026-04-26 21:21 904K
20260426T18Z_MSC_RDPS_RelativeHumidity_IsbL-0750_RLatLon0.09_PT005H.grib2 2026-04-26 21:21 953K
20260426T18Z_MSC_RDPS_RelativeHumidity_IsbL-0800_RLatLon0.09_PT005H.grib2 2026-04-26 21:21 1.0M
20260426T18Z_MSC_RDPS_RelativeHumidity_IsbL-0850_RLatLon0.09_PT005H.grib2 2026-04-26 21:21 1.1M
20260426T18Z_MSC_RDPS_RelativeHumidity_IsbL-0875_RLatLon0.09_PT005H.grib2 2026-04-26 21:21 1.1M
20260426T18Z_MSC_RDPS_RelativeHumidity_IsbL-0900_RLatLon0.09_PT005H.grib2 2026-04-26 21:21 1.1M
20260426T18Z_MSC_RDPS_RelativeHumidity_IsbL-0925_RLatLon0.09_PT005H.grib2 2026-04-26 21:21 1.1M
20260426T18Z_MSC_RDPS_RelativeHumidity_IsbL-0950_RLatLon0.09_PT005H.grib2 2026-04-26 21:21 1.1M
20260426T18Z_MSC_RDPS_RelativeHumidity_IsbL-0970_RLatLon0.09_PT005H.grib2 2026-04-26 21:21 1.0M
20260426T18Z_MSC_RDPS_RelativeHumidity_IsbL-0985_RLatLon0.09_PT005H.grib2 2026-04-26 21:21 1.0M
20260426T18Z_MSC_RDPS_RelativeHumidity_IsbL-1000_RLatLon0.09_PT005H.grib2 2026-04-26 21:21 1.0M
20260426T18Z_MSC_RDPS_RelativeHumidity_IsbL-1015_RLatLon0.09_PT005H.grib2 2026-04-26 21:21 1.0M
20260426T18Z_MSC_RDPS_Runoff-Accum_Sfc_RLatLon0.09_PT005H.grib2 2026-04-26 21:21 50K
20260426T18Z_MSC_RDPS_SWEATIndex_Sfc_RLatLon0.09_PT005H.grib2 2026-04-26 21:21 2.4M
20260426T18Z_MSC_RDPS_SeeingIndex_EAtm_RLatLon0.09_PT005H.grib2 2026-04-26 21:21 1.0M
20260426T18Z_MSC_RDPS_SensibleHeatNetFlux_Sfc_RLatLon0.09_PT005H.grib2 2026-04-26 21:21 330K
20260426T18Z_MSC_RDPS_ShowalterIndex_IsbL-0500_RLatLon0.09_PT005H.grib2 2026-04-26 21:21 2.6M
20260426T18Z_MSC_RDPS_SkyTransparencyIndex_EAtm_RLatLon0.09_PT005H.grib2 2026-04-26 21:21 717K
20260426T18Z_MSC_RDPS_Snow-Accum1h_Sfc_RLatLon0.09_PT005H.grib2 2026-04-26 21:21 473K
20260426T18Z_MSC_RDPS_Snow-Accum_Sfc_RLatLon0.09_PT005H.grib2 2026-04-26 21:21 681K
20260426T18Z_MSC_RDPS_SnowDensity_Sfc_RLatLon0.09_PT005H.grib2 2026-04-26 21:21 178K
20260426T18Z_MSC_RDPS_SnowDepth_Sfc_RLatLon0.09_PT005H.grib2 2026-04-26 21:21 715K
20260426T18Z_MSC_RDPS_SoilTemp_DBS-0to10cm_RLatLon0.09_PT005H.grib2 2026-04-26 21:21 204K
20260426T18Z_MSC_RDPS_SoilTemp_Sfc_RLatLon0.09_PT005H.grib2 2026-04-26 21:21 282K
20260426T18Z_MSC_RDPS_SoilVolumetricIceContent_Sfc_RLatLon0.09_PT005H.grib2 2026-04-26 21:21 168K
20260426T18Z_MSC_RDPS_SoilVolumetricWaterContent_DBS-0to10cm_RLatLon0.09_PT005H.grib2 2026-04-26 21:21 257K
20260426T18Z_MSC_RDPS_SoilVolumetricWaterContent_DBS-0to1cm_RLatLon0.09_PT005H.grib2 2026-04-26 21:21 335K
20260426T18Z_MSC_RDPS_SpecificHumidity_AGL-120m_RLatLon0.09_PT005H.grib2 2026-04-26 21:21 485K
20260426T18Z_MSC_RDPS_SpecificHumidity_AGL-2m_RLatLon0.09_PT005H.grib2 2026-04-26 21:21 655K
20260426T18Z_MSC_RDPS_SpecificHumidity_AGL-40m_RLatLon0.09_PT005H.grib2 2026-04-26 21:21 491K
20260426T18Z_MSC_RDPS_SpecificHumidity_AGL-80m_RLatLon0.09_PT005H.grib2 2026-04-26 21:21 486K
20260426T18Z_MSC_RDPS_SpecificHumidity_IsbL-0001_RLatLon0.09_PT005H.grib2 2026-04-26 21:21 339K
20260426T18Z_MSC_RDPS_SpecificHumidity_IsbL-0005_RLatLon0.09_PT005H.grib2 2026-04-26 21:21 352K
20260426T18Z_MSC_RDPS_SpecificHumidity_IsbL-0010_RLatLon0.09_PT005H.grib2 2026-04-26 21:21 394K
20260426T18Z_MSC_RDPS_SpecificHumidity_IsbL-0020_RLatLon0.09_PT005H.grib2 2026-04-26 21:21 386K
20260426T18Z_MSC_RDPS_SpecificHumidity_IsbL-0030_RLatLon0.09_PT005H.grib2 2026-04-26 21:21 479K
20260426T18Z_MSC_RDPS_SpecificHumidity_IsbL-0050_RLatLon0.09_PT005H.grib2 2026-04-26 21:21 473K
20260426T18Z_MSC_RDPS_SpecificHumidity_IsbL-0100_RLatLon0.09_PT005H.grib2 2026-04-26 21:21 442K
20260426T18Z_MSC_RDPS_SpecificHumidity_IsbL-0150_RLatLon0.09_PT005H.grib2 2026-04-26 21:21 362K
20260426T18Z_MSC_RDPS_SpecificHumidity_IsbL-0175_RLatLon0.09_PT005H.grib2 2026-04-26 21:21 459K
20260426T18Z_MSC_RDPS_SpecificHumidity_IsbL-0200_RLatLon0.09_PT005H.grib2 2026-04-26 21:21 473K
20260426T18Z_MSC_RDPS_SpecificHumidity_IsbL-0225_RLatLon0.09_PT005H.grib2 2026-04-26 21:21 578K
20260426T18Z_MSC_RDPS_SpecificHumidity_IsbL-0250_RLatLon0.09_PT005H.grib2 2026-04-26 21:21 579K
20260426T18Z_MSC_RDPS_SpecificHumidity_IsbL-0275_RLatLon0.09_PT005H.grib2 2026-04-26 21:21 494K
20260426T18Z_MSC_RDPS_SpecificHumidity_IsbL-0300_RLatLon0.09_PT005H.grib2 2026-04-26 21:21 563K
20260426T18Z_MSC_RDPS_SpecificHumidity_IsbL-0350_RLatLon0.09_PT005H.grib2 2026-04-26 21:21 546K
20260426T18Z_MSC_RDPS_SpecificHumidity_IsbL-0400_RLatLon0.09_PT005H.grib2 2026-04-26 21:21 524K
20260426T18Z_MSC_RDPS_SpecificHumidity_IsbL-0450_RLatLon0.09_PT005H.grib2 2026-04-26 21:21 578K
20260426T18Z_MSC_RDPS_SpecificHumidity_IsbL-0500_RLatLon0.09_PT005H.grib2 2026-04-26 21:21 514K
20260426T18Z_MSC_RDPS_SpecificHumidity_IsbL-0550_RLatLon0.09_PT005H.grib2 2026-04-26 21:21 583K
20260426T18Z_MSC_RDPS_SpecificHumidity_IsbL-0600_RLatLon0.09_PT005H.grib2 2026-04-26 21:21 632K
20260426T18Z_MSC_RDPS_SpecificHumidity_IsbL-0650_RLatLon0.09_PT005H.grib2 2026-04-26 21:21 549K
20260426T18Z_MSC_RDPS_SpecificHumidity_IsbL-0700_RLatLon0.09_PT005H.grib2 2026-04-26 21:21 595K
20260426T18Z_MSC_RDPS_SpecificHumidity_IsbL-0750_RLatLon0.09_PT005H.grib2 2026-04-26 21:21 657K
20260426T18Z_MSC_RDPS_SpecificHumidity_IsbL-0800_RLatLon0.09_PT005H.grib2 2026-04-26 21:21 743K
20260426T18Z_MSC_RDPS_SpecificHumidity_IsbL-0850_RLatLon0.09_PT005H.grib2 2026-04-26 21:21 811K
20260426T18Z_MSC_RDPS_SpecificHumidity_IsbL-0875_RLatLon0.09_PT005H.grib2 2026-04-26 21:21 694K
20260426T18Z_MSC_RDPS_SpecificHumidity_IsbL-0900_RLatLon0.09_PT005H.grib2 2026-04-26 21:21 703K
20260426T18Z_MSC_RDPS_SpecificHumidity_IsbL-0925_RLatLon0.09_PT005H.grib2 2026-04-26 21:21 704K
20260426T18Z_MSC_RDPS_SpecificHumidity_IsbL-0950_RLatLon0.09_PT005H.grib2 2026-04-26 21:21 698K
20260426T18Z_MSC_RDPS_SpecificHumidity_IsbL-0970_RLatLon0.09_PT005H.grib2 2026-04-26 21:21 685K
20260426T18Z_MSC_RDPS_SpecificHumidity_IsbL-0985_RLatLon0.09_PT005H.grib2 2026-04-26 21:21 678K
20260426T18Z_MSC_RDPS_SpecificHumidity_IsbL-1000_RLatLon0.09_PT005H.grib2 2026-04-26 21:21 674K
20260426T18Z_MSC_RDPS_SpecificHumidity_IsbL-1015_RLatLon0.09_PT005H.grib2 2026-04-26 21:21 667K
20260426T18Z_MSC_RDPS_SpecificHumidity_Sfc_RLatLon0.09_PT005H.grib2 2026-04-26 21:21 338K
20260426T18Z_MSC_RDPS_StormRelativeHelicity_EtaL-10000_RLatLon0.09_PT005H.grib2 2026-04-26 21:21 1.1M
20260426T18Z_MSC_RDPS_StormSeverityIndex_EtaL-10000_RLatLon0.09_PT005H.grib2 2026-04-26 21:21 1.2M
20260426T18Z_MSC_RDPS_Thickness_IsbL-0850to0700_RLatLon0.09_PT005H.grib2 2026-04-26 21:21 196K
20260426T18Z_MSC_RDPS_Thickness_IsbL-1000to0500_RLatLon0.09_PT005H.grib2 2026-04-26 21:21 204K
20260426T18Z_MSC_RDPS_Thickness_IsbL-1000to0850_RLatLon0.09_PT005H.grib2 2026-04-26 21:21 186K
20260426T18Z_MSC_RDPS_TotalCloudCover_Sfc_RLatLon0.09_PT005H.grib2 2026-04-26 21:21 657K
20260426T18Z_MSC_RDPS_TotalTotalsIndex_Sfc_RLatLon0.09_PT005H.grib2 2026-04-26 21:21 2.4M
20260426T18Z_MSC_RDPS_UVIndex-ClearSky_Sfc_RLatLon0.09_PT005H.grib2 2026-04-26 21:21 198K
20260426T18Z_MSC_RDPS_UVIndex_Sfc_RLatLon0.09_PT005H.grib2 2026-04-26 21:21 434K
20260426T18Z_MSC_RDPS_UpwardLongwaveRadiationFlux_NTAtm_RLatLon0.09_PT005H.grib2 2026-04-26 21:21 503K
20260426T18Z_MSC_RDPS_UpwardShortwaveRadiationFlux_NTAtm_RLatLon0.09_PT005H.grib2 2026-04-26 21:21 393K
20260426T18Z_MSC_RDPS_VerticalVelocity_IsbL-0250_RLatLon0.09_PT005H.grib2 2026-04-26 21:21 430K
20260426T18Z_MSC_RDPS_VerticalVelocity_IsbL-0500_RLatLon0.09_PT005H.grib2 2026-04-26 21:21 543K
20260426T18Z_MSC_RDPS_VerticalVelocity_IsbL-0700_RLatLon0.09_PT005H.grib2 2026-04-26 21:21 599K
20260426T18Z_MSC_RDPS_VerticalVelocity_IsbL-0850_RLatLon0.09_PT005H.grib2 2026-04-26 21:21 704K
20260426T18Z_MSC_RDPS_VerticalWindShear_EtaL-6500_RLatLon0.09_PT005H.grib2 2026-04-26 21:21 1.2M
20260426T18Z_MSC_RDPS_WindChill_Sfc_RLatLon0.09_PT005H.grib2 2026-04-26 21:21 1.1M
20260426T18Z_MSC_RDPS_WindDir_AGL-10m_RLatLon0.09_PT005H.grib2 2026-04-26 21:21 969K
20260426T18Z_MSC_RDPS_WindDir_AGL-120m_RLatLon0.09_PT005H.grib2 2026-04-26 21:21 615K
20260426T18Z_MSC_RDPS_WindDir_AGL-40m_RLatLon0.09_PT005H.grib2 2026-04-26 21:21 638K
20260426T18Z_MSC_RDPS_WindDir_AGL-80m_RLatLon0.09_PT005H.grib2 2026-04-26 21:21 624K
20260426T18Z_MSC_RDPS_WindDir_IsbL-0001_RLatLon0.09_PT005H.grib2 2026-04-26 21:21 276K
20260426T18Z_MSC_RDPS_WindDir_IsbL-0005_RLatLon0.09_PT005H.grib2 2026-04-26 21:21 363K
20260426T18Z_MSC_RDPS_WindDir_IsbL-0010_RLatLon0.09_PT005H.grib2 2026-04-26 21:21 376K
20260426T18Z_MSC_RDPS_WindDir_IsbL-0020_RLatLon0.09_PT005H.grib2 2026-04-26 21:21 399K
20260426T18Z_MSC_RDPS_WindDir_IsbL-0030_RLatLon0.09_PT005H.grib2 2026-04-26 21:21 393K
20260426T18Z_MSC_RDPS_WindDir_IsbL-0050_RLatLon0.09_PT005H.grib2 2026-04-26 21:21 419K
20260426T18Z_MSC_RDPS_WindDir_IsbL-0100_RLatLon0.09_PT005H.grib2 2026-04-26 21:21 409K
20260426T18Z_MSC_RDPS_WindDir_IsbL-0150_RLatLon0.09_PT005H.grib2 2026-04-26 21:21 419K
20260426T18Z_MSC_RDPS_WindDir_IsbL-0175_RLatLon0.09_PT005H.grib2 2026-04-26 21:21 445K
20260426T18Z_MSC_RDPS_WindDir_IsbL-0200_RLatLon0.09_PT005H.grib2 2026-04-26 21:21 455K
20260426T18Z_MSC_RDPS_WindDir_IsbL-0225_RLatLon0.09_PT005H.grib2 2026-04-26 21:21 456K
20260426T18Z_MSC_RDPS_WindDir_IsbL-0250_RLatLon0.09_PT005H.grib2 2026-04-26 21:21 458K
20260426T18Z_MSC_RDPS_WindDir_IsbL-0275_RLatLon0.09_PT005H.grib2 2026-04-26 21:21 483K
20260426T18Z_MSC_RDPS_WindDir_IsbL-0300_RLatLon0.09_PT005H.grib2 2026-04-26 21:21 479K
20260426T18Z_MSC_RDPS_WindDir_IsbL-0350_RLatLon0.09_PT005H.grib2 2026-04-26 21:21 499K
20260426T18Z_MSC_RDPS_WindDir_IsbL-0400_RLatLon0.09_PT005H.grib2 2026-04-26 21:21 515K
20260426T18Z_MSC_RDPS_WindDir_IsbL-0450_RLatLon0.09_PT005H.grib2 2026-04-26 21:21 529K
20260426T18Z_MSC_RDPS_WindDir_IsbL-0500_RLatLon0.09_PT005H.grib2 2026-04-26 21:21 543K
20260426T18Z_MSC_RDPS_WindDir_IsbL-0550_RLatLon0.09_PT005H.grib2 2026-04-26 21:21 561K
20260426T18Z_MSC_RDPS_WindDir_IsbL-0600_RLatLon0.09_PT005H.grib2 2026-04-26 21:21 591K
20260426T18Z_MSC_RDPS_WindDir_IsbL-0650_RLatLon0.09_PT005H.grib2 2026-04-26 21:21 634K
20260426T18Z_MSC_RDPS_WindDir_IsbL-0700_RLatLon0.09_PT005H.grib2 2026-04-26 21:21 682K
20260426T18Z_MSC_RDPS_WindDir_IsbL-0750_RLatLon0.09_PT005H.grib2 2026-04-26 21:21 740K
20260426T18Z_MSC_RDPS_WindDir_IsbL-0800_RLatLon0.09_PT005H.grib2 2026-04-26 21:21 816K
20260426T18Z_MSC_RDPS_WindDir_IsbL-0850_RLatLon0.09_PT005H.grib2 2026-04-26 21:21 893K
20260426T18Z_MSC_RDPS_WindDir_IsbL-0875_RLatLon0.09_PT005H.grib2 2026-04-26 21:21 912K
20260426T18Z_MSC_RDPS_WindDir_IsbL-0900_RLatLon0.09_PT005H.grib2 2026-04-26 21:21 922K
20260426T18Z_MSC_RDPS_WindDir_IsbL-0925_RLatLon0.09_PT005H.grib2 2026-04-26 21:21 921K
20260426T18Z_MSC_RDPS_WindDir_IsbL-0950_RLatLon0.09_PT005H.grib2 2026-04-26 21:21 914K
20260426T18Z_MSC_RDPS_WindDir_IsbL-0970_RLatLon0.09_PT005H.grib2 2026-04-26 21:21 918K
20260426T18Z_MSC_RDPS_WindDir_IsbL-0985_RLatLon0.09_PT005H.grib2 2026-04-26 21:21 930K
20260426T18Z_MSC_RDPS_WindDir_IsbL-1000_RLatLon0.09_PT005H.grib2 2026-04-26 21:21 945K
20260426T18Z_MSC_RDPS_WindDir_IsbL-1015_RLatLon0.09_PT005H.grib2 2026-04-26 21:21 959K
20260426T18Z_MSC_RDPS_WindGust-Max_AGL-10m_RLatLon0.09_PT005H.grib2 2026-04-26 21:21 939K
20260426T18Z_MSC_RDPS_WindGust-Min_AGL-10m_RLatLon0.09_PT005H.grib2 2026-04-26 21:21 971K
20260426T18Z_MSC_RDPS_WindGust_AGL-10m_RLatLon0.09_PT005H.grib2 2026-04-26 21:21 931K
20260426T18Z_MSC_RDPS_WindSpeed_AGL-10m_RLatLon0.09_PT005H.grib2 2026-04-26 21:21 848K
20260426T18Z_MSC_RDPS_WindSpeed_AGL-120m_RLatLon0.09_PT005H.grib2 2026-04-26 21:21 547K
20260426T18Z_MSC_RDPS_WindSpeed_AGL-40m_RLatLon0.09_PT005H.grib2 2026-04-26 21:21 554K
20260426T18Z_MSC_RDPS_WindSpeed_AGL-80m_RLatLon0.09_PT005H.grib2 2026-04-26 21:21 550K
20260426T18Z_MSC_RDPS_WindSpeed_IsbL-0001_RLatLon0.09_PT005H.grib2 2026-04-26 21:21 246K
20260426T18Z_MSC_RDPS_WindSpeed_IsbL-0005_RLatLon0.09_PT005H.grib2 2026-04-26 21:21 291K
20260426T18Z_MSC_RDPS_WindSpeed_IsbL-0010_RLatLon0.09_PT005H.grib2 2026-04-26 21:21 301K
20260426T18Z_MSC_RDPS_WindSpeed_IsbL-0020_RLatLon0.09_PT005H.grib2 2026-04-26 21:21 317K
20260426T18Z_MSC_RDPS_WindSpeed_IsbL-0030_RLatLon0.09_PT005H.grib2 2026-04-26 21:21 317K
20260426T18Z_MSC_RDPS_WindSpeed_IsbL-0050_RLatLon0.09_PT005H.grib2 2026-04-26 21:21 451K
20260426T18Z_MSC_RDPS_WindSpeed_IsbL-0100_RLatLon0.09_PT005H.grib2 2026-04-26 21:21 468K
20260426T18Z_MSC_RDPS_WindSpeed_IsbL-0150_RLatLon0.09_PT005H.grib2 2026-04-26 21:21 376K
20260426T18Z_MSC_RDPS_WindSpeed_IsbL-0175_RLatLon0.09_PT005H.grib2 2026-04-26 21:21 428K
20260426T18Z_MSC_RDPS_WindSpeed_IsbL-0200_RLatLon0.09_PT005H.grib2 2026-04-26 21:21 426K
20260426T18Z_MSC_RDPS_WindSpeed_IsbL-0225_RLatLon0.09_PT005H.grib2 2026-04-26 21:21 455K
20260426T18Z_MSC_RDPS_WindSpeed_IsbL-0250_RLatLon0.09_PT005H.grib2 2026-04-26 21:21 459K
20260426T18Z_MSC_RDPS_WindSpeed_IsbL-0275_RLatLon0.09_PT005H.grib2 2026-04-26 21:21 476K
20260426T18Z_MSC_RDPS_WindSpeed_IsbL-0300_RLatLon0.09_PT005H.grib2 2026-04-26 21:21 471K
20260426T18Z_MSC_RDPS_WindSpeed_IsbL-0350_RLatLon0.09_PT005H.grib2 2026-04-26 21:21 481K
20260426T18Z_MSC_RDPS_WindSpeed_IsbL-0400_RLatLon0.09_PT005H.grib2 2026-04-26 21:21 463K
20260426T18Z_MSC_RDPS_WindSpeed_IsbL-0450_RLatLon0.09_PT005H.grib2 2026-04-26 21:21 459K
20260426T18Z_MSC_RDPS_WindSpeed_IsbL-0500_RLatLon0.09_PT005H.grib2 2026-04-26 21:21 459K
20260426T18Z_MSC_RDPS_WindSpeed_IsbL-0550_RLatLon0.09_PT005H.grib2 2026-04-26 21:21 580K
20260426T18Z_MSC_RDPS_WindSpeed_IsbL-0600_RLatLon0.09_PT005H.grib2 2026-04-26 21:21 592K
20260426T18Z_MSC_RDPS_WindSpeed_IsbL-0650_RLatLon0.09_PT005H.grib2 2026-04-26 21:21 657K
20260426T18Z_MSC_RDPS_WindSpeed_IsbL-0700_RLatLon0.09_PT005H.grib2 2026-04-26 21:21 683K
20260426T18Z_MSC_RDPS_WindSpeed_IsbL-0750_RLatLon0.09_PT005H.grib2 2026-04-26 21:21 713K
20260426T18Z_MSC_RDPS_WindSpeed_IsbL-0800_RLatLon0.09_PT005H.grib2 2026-04-26 21:21 765K
20260426T18Z_MSC_RDPS_WindSpeed_IsbL-0850_RLatLon0.09_PT005H.grib2 2026-04-26 21:21 819K
20260426T18Z_MSC_RDPS_WindSpeed_IsbL-0875_RLatLon0.09_PT005H.grib2 2026-04-26 21:21 836K
20260426T18Z_MSC_RDPS_WindSpeed_IsbL-0900_RLatLon0.09_PT005H.grib2 2026-04-26 21:21 802K
20260426T18Z_MSC_RDPS_WindSpeed_IsbL-0925_RLatLon0.09_PT005H.grib2 2026-04-26 21:21 809K
20260426T18Z_MSC_RDPS_WindSpeed_IsbL-0950_RLatLon0.09_PT005H.grib2 2026-04-26 21:21 808K
20260426T18Z_MSC_RDPS_WindSpeed_IsbL-0970_RLatLon0.09_PT005H.grib2 2026-04-26 21:21 809K
20260426T18Z_MSC_RDPS_WindSpeed_IsbL-0985_RLatLon0.09_PT005H.grib2 2026-04-26 21:21 857K
20260426T18Z_MSC_RDPS_WindSpeed_IsbL-1000_RLatLon0.09_PT005H.grib2 2026-04-26 21:21 854K
20260426T18Z_MSC_RDPS_WindSpeed_IsbL-1015_RLatLon0.09_PT005H.grib2 2026-04-26 21:21 848K
20260426T18Z_MSC_RDPS_WindU_AGL-10m_RLatLon0.09_PT005H.grib2 2026-04-26 21:21 436K
20260426T18Z_MSC_RDPS_WindU_AGL-120m_RLatLon0.09_PT005H.grib2 2026-04-26 21:21 418K
20260426T18Z_MSC_RDPS_WindU_AGL-40m_RLatLon0.09_PT005H.grib2 2026-04-26 21:21 540K
20260426T18Z_MSC_RDPS_WindU_AGL-80m_RLatLon0.09_PT005H.grib2 2026-04-26 21:21 537K
20260426T18Z_MSC_RDPS_WindU_IsbL-0001_RLatLon0.09_PT005H.grib2 2026-04-26 21:21 289K
20260426T18Z_MSC_RDPS_WindU_IsbL-0005_RLatLon0.09_PT005H.grib2 2026-04-26 21:21 282K
20260426T18Z_MSC_RDPS_WindU_IsbL-0010_RLatLon0.09_PT005H.grib2 2026-04-26 21:21 292K
20260426T18Z_MSC_RDPS_WindU_IsbL-0020_RLatLon0.09_PT005H.grib2 2026-04-26 21:21 349K
20260426T18Z_MSC_RDPS_WindU_IsbL-0030_RLatLon0.09_PT005H.grib2 2026-04-26 21:21 348K
20260426T18Z_MSC_RDPS_WindU_IsbL-0050_RLatLon0.09_PT005H.grib2 2026-04-26 21:21 343K
20260426T18Z_MSC_RDPS_WindU_IsbL-0100_RLatLon0.09_PT005H.grib2 2026-04-26 21:21 332K
20260426T18Z_MSC_RDPS_WindU_IsbL-0150_RLatLon0.09_PT005H.grib2 2026-04-26 21:21 394K
20260426T18Z_MSC_RDPS_WindU_IsbL-0175_RLatLon0.09_PT005H.grib2 2026-04-26 21:21 421K
20260426T18Z_MSC_RDPS_WindU_IsbL-0200_RLatLon0.09_PT005H.grib2 2026-04-26 21:21 439K
20260426T18Z_MSC_RDPS_WindU_IsbL-0225_RLatLon0.09_PT005H.grib2 2026-04-26 21:21 346K
20260426T18Z_MSC_RDPS_WindU_IsbL-0250_RLatLon0.09_PT005H.grib2 2026-04-26 21:21 347K
20260426T18Z_MSC_RDPS_WindU_IsbL-0275_RLatLon0.09_PT005H.grib2 2026-04-26 21:21 362K
20260426T18Z_MSC_RDPS_WindU_IsbL-0300_RLatLon0.09_PT005H.grib2 2026-04-26 21:21 358K
20260426T18Z_MSC_RDPS_WindU_IsbL-0350_RLatLon0.09_PT005H.grib2 2026-04-26 21:21 365K
20260426T18Z_MSC_RDPS_WindU_IsbL-0400_RLatLon0.09_PT005H.grib2 2026-04-26 21:21 467K
20260426T18Z_MSC_RDPS_WindU_IsbL-0450_RLatLon0.09_PT005H.grib2 2026-04-26 21:21 466K
20260426T18Z_MSC_RDPS_WindU_IsbL-0500_RLatLon0.09_PT005H.grib2 2026-04-26 21:21 466K
20260426T18Z_MSC_RDPS_WindU_IsbL-0550_RLatLon0.09_PT005H.grib2 2026-04-26 21:21 470K
20260426T18Z_MSC_RDPS_WindU_IsbL-0600_RLatLon0.09_PT005H.grib2 2026-04-26 21:21 481K
20260426T18Z_MSC_RDPS_WindU_IsbL-0650_RLatLon0.09_PT005H.grib2 2026-04-26 21:21 484K
20260426T18Z_MSC_RDPS_WindU_IsbL-0700_RLatLon0.09_PT005H.grib2 2026-04-26 21:21 506K
20260426T18Z_MSC_RDPS_WindU_IsbL-0750_RLatLon0.09_PT005H.grib2 2026-04-26 21:21 535K
20260426T18Z_MSC_RDPS_WindU_IsbL-0800_RLatLon0.09_PT005H.grib2 2026-04-26 21:21 581K
20260426T18Z_MSC_RDPS_WindU_IsbL-0850_RLatLon0.09_PT005H.grib2 2026-04-26 21:21 627K
20260426T18Z_MSC_RDPS_WindU_IsbL-0875_RLatLon0.09_PT005H.grib2 2026-04-26 21:21 641K
20260426T18Z_MSC_RDPS_WindU_IsbL-0900_RLatLon0.09_PT005H.grib2 2026-04-26 21:21 650K
20260426T18Z_MSC_RDPS_WindU_IsbL-0925_RLatLon0.09_PT005H.grib2 2026-04-26 21:21 655K
20260426T18Z_MSC_RDPS_WindU_IsbL-0950_RLatLon0.09_PT005H.grib2 2026-04-26 21:21 652K
20260426T18Z_MSC_RDPS_WindU_IsbL-0970_RLatLon0.09_PT005H.grib2 2026-04-26 21:21 651K
20260426T18Z_MSC_RDPS_WindU_IsbL-0985_RLatLon0.09_PT005H.grib2 2026-04-26 21:21 791K
20260426T18Z_MSC_RDPS_WindU_IsbL-1000_RLatLon0.09_PT005H.grib2 2026-04-26 21:21 787K
20260426T18Z_MSC_RDPS_WindU_IsbL-1015_RLatLon0.09_PT005H.grib2 2026-04-26 21:21 783K
20260426T18Z_MSC_RDPS_WindV_AGL-10m_RLatLon0.09_PT005H.grib2 2026-04-26 21:21 433K
20260426T18Z_MSC_RDPS_WindV_AGL-120m_RLatLon0.09_PT005H.grib2 2026-04-26 21:21 416K
20260426T18Z_MSC_RDPS_WindV_AGL-40m_RLatLon0.09_PT005H.grib2 2026-04-26 21:21 419K
20260426T18Z_MSC_RDPS_WindV_AGL-80m_RLatLon0.09_PT005H.grib2 2026-04-26 21:21 417K
20260426T18Z_MSC_RDPS_WindV_IsbL-0001_RLatLon0.09_PT005H.grib2 2026-04-26 21:21 262K
20260426T18Z_MSC_RDPS_WindV_IsbL-0005_RLatLon0.09_PT005H.grib2 2026-04-26 21:21 325K
20260426T18Z_MSC_RDPS_WindV_IsbL-0010_RLatLon0.09_PT005H.grib2 2026-04-26 21:21 292K
20260426T18Z_MSC_RDPS_WindV_IsbL-0020_RLatLon0.09_PT005H.grib2 2026-04-26 21:21 349K
20260426T18Z_MSC_RDPS_WindV_IsbL-0030_RLatLon0.09_PT005H.grib2 2026-04-26 21:21 310K
20260426T18Z_MSC_RDPS_WindV_IsbL-0050_RLatLon0.09_PT005H.grib2 2026-04-26 21:21 339K
20260426T18Z_MSC_RDPS_WindV_IsbL-0100_RLatLon0.09_PT005H.grib2 2026-04-26 21:21 326K
20260426T18Z_MSC_RDPS_WindV_IsbL-0150_RLatLon0.09_PT005H.grib2 2026-04-26 21:21 391K
20260426T18Z_MSC_RDPS_WindV_IsbL-0175_RLatLon0.09_PT005H.grib2 2026-04-26 21:21 419K
20260426T18Z_MSC_RDPS_WindV_IsbL-0200_RLatLon0.09_PT005H.grib2 2026-04-26 21:21 436K
20260426T18Z_MSC_RDPS_WindV_IsbL-0225_RLatLon0.09_PT005H.grib2 2026-04-26 21:21 345K
20260426T18Z_MSC_RDPS_WindV_IsbL-0250_RLatLon0.09_PT005H.grib2 2026-04-26 21:21 346K
20260426T18Z_MSC_RDPS_WindV_IsbL-0275_RLatLon0.09_PT005H.grib2 2026-04-26 21:21 359K
20260426T18Z_MSC_RDPS_WindV_IsbL-0300_RLatLon0.09_PT005H.grib2 2026-04-26 21:21 353K
20260426T18Z_MSC_RDPS_WindV_IsbL-0350_RLatLon0.09_PT005H.grib2 2026-04-26 21:21 360K
20260426T18Z_MSC_RDPS_WindV_IsbL-0400_RLatLon0.09_PT005H.grib2 2026-04-26 21:21 361K
20260426T18Z_MSC_RDPS_WindV_IsbL-0450_RLatLon0.09_PT005H.grib2 2026-04-26 21:21 460K
20260426T18Z_MSC_RDPS_WindV_IsbL-0500_RLatLon0.09_PT005H.grib2 2026-04-26 21:21 461K
20260426T18Z_MSC_RDPS_WindV_IsbL-0550_RLatLon0.09_PT005H.grib2 2026-04-26 21:21 466K
20260426T18Z_MSC_RDPS_WindV_IsbL-0600_RLatLon0.09_PT005H.grib2 2026-04-26 21:21 475K
20260426T18Z_MSC_RDPS_WindV_IsbL-0650_RLatLon0.09_PT005H.grib2 2026-04-26 21:21 479K
20260426T18Z_MSC_RDPS_WindV_IsbL-0700_RLatLon0.09_PT005H.grib2 2026-04-26 21:21 501K
20260426T18Z_MSC_RDPS_WindV_IsbL-0750_RLatLon0.09_PT005H.grib2 2026-04-26 21:21 529K
20260426T18Z_MSC_RDPS_WindV_IsbL-0800_RLatLon0.09_PT005H.grib2 2026-04-26 21:21 573K
20260426T18Z_MSC_RDPS_WindV_IsbL-0850_RLatLon0.09_PT005H.grib2 2026-04-26 21:21 620K
20260426T18Z_MSC_RDPS_WindV_IsbL-0875_RLatLon0.09_PT005H.grib2 2026-04-26 21:21 644K
20260426T18Z_MSC_RDPS_WindV_IsbL-0900_RLatLon0.09_PT005H.grib2 2026-04-26 21:21 653K
20260426T18Z_MSC_RDPS_WindV_IsbL-0925_RLatLon0.09_PT005H.grib2 2026-04-26 21:21 657K
20260426T18Z_MSC_RDPS_WindV_IsbL-0950_RLatLon0.09_PT005H.grib2 2026-04-26 21:21 648K
20260426T18Z_MSC_RDPS_WindV_IsbL-0970_RLatLon0.09_PT005H.grib2 2026-04-26 21:21 648K
20260426T18Z_MSC_RDPS_WindV_IsbL-0985_RLatLon0.09_PT005H.grib2 2026-04-26 21:21 648K
20260426T18Z_MSC_RDPS_WindV_IsbL-1000_RLatLon0.09_PT005H.grib2 2026-04-26 21:21 784K
20260426T18Z_MSC_RDPS_WindV_IsbL-1015_RLatLon0.09_PT005H.grib2 2026-04-26 21:21 779K